ContactaLinksHome
    
DADES METEOROLÒGIQUES DE LES ÚLTIMES 24 HORES
 

Taire  Temperatura de l'aire  (ºC)
HumitatR  Humitat relativa de l'aire (%)
Pluja  Litres de pluja per metre cuadrat caiguts en 10 minuts (l/m²)
VelVent  Velocitat mitjana del vent (m/s)
DirVent  Direcció del vent  (º)
RadSolar  Intensitat de Radiació solar (w/m²)
PressAtm  Pressió atmosfèrica (mb)
  ***Dades sense verificar
DataTaireHumitatRPlujaVelVentDirVentRadSolarPressAtm
20/09/2019 23:10:0022.0750,03.75401017
20/09/2019 23:00:0022.0750,03.54501017
20/09/2019 22:50:0022.0750,03.45901017
20/09/2019 22:40:0022.0750,03.34401017
20/09/2019 22:30:0022.0750,03.15501017
20/09/2019 22:20:0021.9750,03.75901017
20/09/2019 22:10:0021.9760,03.64401017
20/09/2019 22:00:0021.9760,03.53601017
20/09/2019 21:50:0021.9770,03.34501017
20/09/2019 21:40:0022.1770,03.96701017
20/09/2019 21:30:0022.1770,04.86601017
20/09/2019 21:20:0022.0790,05.36301017
20/09/2019 21:10:0021.9790,05.46801017
20/09/2019 21:00:0022.0800,05.05801017
20/09/2019 20:50:0022.1800,05.06401017
20/09/2019 20:40:0022.0810,04.97201017
20/09/2019 20:30:0022.1820,05.87601017
20/09/2019 20:20:0022.1830,05.97001017
20/09/2019 20:10:0022.1830,06.17301017
20/09/2019 20:00:0022.1830,06.55601018
20/09/2019 19:50:0022.1830,06.26901018
20/09/2019 19:40:0022.2830,07.46901018
20/09/2019 19:30:0022.3830,06.57201018
20/09/2019 19:20:0022.4820,06.58001018
20/09/2019 19:10:0022.4810,06.58001018
20/09/2019 19:00:0022.4820,06.98601018
20/09/2019 18:50:0022.4820,07.18701017
20/09/2019 18:40:0022.4820,06.79401017
20/09/2019 18:30:0022.3820,06.98201017
20/09/2019 18:20:0022.3820,07.48901017
20/09/2019 18:10:0022.2840,07.38601017
20/09/2019 18:00:0022.3830,06.68211017
20/09/2019 17:50:0022.3830,06.68441017
20/09/2019 17:40:0022.3830,06.385101017
20/09/2019 17:30:0022.3830,06.783181017
20/09/2019 17:20:0022.3820,06.876321017
20/09/2019 17:10:0022.3820,07.390581017
20/09/2019 17:00:0022.4820,07.375641017
20/09/2019 16:50:0022.4820,07.2761171017
20/09/2019 16:40:0022.3820,06.8801531017
20/09/2019 16:30:0022.3820,07.3821291017
20/09/2019 16:20:0022.4810,06.881991017
20/09/2019 16:10:0022.3810,06.5801031017
20/09/2019 16:00:0022.3810,06.4781821017
20/09/2019 15:50:0022.3810,06.4781461017
20/09/2019 15:40:0022.4810,06.4782221017
20/09/2019 15:30:0022.4800,06.0913221017
20/09/2019 15:20:0022.3790,06.0913151017
20/09/2019 15:10:0022.3790,05.9974131017
20/09/2019 15:00:0022.3790,06.2824451017
20/09/2019 14:50:0022.4800,05.9914801017
20/09/2019 14:40:0022.2790,06.0895191017
20/09/2019 14:30:0022.2790,06.1805341017
20/09/2019 14:20:0022.2780,06.1835591017
20/09/2019 14:10:0022.2780,05.71005861018
20/09/2019 14:00:0022.2780,05.8856051018
20/09/2019 13:50:0022.3770,06.0776211018
20/09/2019 13:40:0022.3770,06.0816411018
20/09/2019 13:30:0022.3770,06.0746591018
20/09/2019 13:20:0022.4750,05.8806871018
20/09/2019 13:10:0022.1760,05.8936861018
20/09/2019 13:00:0022.2760,06.3937071018
20/09/2019 12:50:0022.1760,05.1947301018
20/09/2019 12:40:0022.0750,04.6967721018
20/09/2019 12:30:0022.2750,04.6966461018
20/09/2019 12:20:0022.1740,03.91016741019
20/09/2019 12:10:0021.9750,04.01057071019
20/09/2019 12:00:0022.0740,04.21077411019
20/09/2019 11:50:0022.0730,04.0997751019
20/09/2019 11:40:0022.0730,03.91057801019
20/09/2019 11:30:0022.0730,03.9967801019
20/09/2019 11:20:0022.2720,03.81037591019
20/09/2019 11:10:0022.2680,03.41097491019
20/09/2019 11:00:0022.2680,03.01197411019
20/09/2019 10:50:0022.2670,02.91077331019
20/09/2019 10:40:0022.1670,03.01097221019
20/09/2019 10:30:0022.1640,02.8987051020
20/09/2019 10:20:0022.1650,03.01036901019
20/09/2019 10:10:0022.1660,03.51146751020
20/09/2019 10:00:0022.2660,03.81056551020
20/09/2019 9:50:0022.2650,03.81126381020
20/09/2019 9:40:0022.2630,04.11026201020
20/09/2019 9:30:0022.3610,03.91115861020
20/09/2019 9:20:0022.3600,03.31065791020
20/09/2019 9:10:0022.3600,03.71095391020
20/09/2019 9:00:0022.4590,03.7925331019
20/09/2019 8:50:0022.4610,03.91015061020
20/09/2019 8:40:0022.5620,03.41193751020
20/09/2019 8:30:0022.7580,03.1874151020
20/09/2019 8:20:0022.7600,02.4913851019
20/09/2019 8:10:0023.2590,01.6752921019
20/09/2019 8:00:0023.3600,00.71062591019
20/09/2019 7:50:0023.3610,01.0603091019
20/09/2019 7:40:0022.7620,01.3613111019
20/09/2019 7:30:0022.3630,01.4312771019
20/09/2019 7:20:0021.9640,01.6222361019
20/09/2019 7:10:0021.4650,01.53452121019
20/09/2019 7:00:0021.1670,01.83441761019
20/09/2019 6:50:0020.6680,02.03241601019
20/09/2019 6:40:0020.3690,01.83001291018
20/09/2019 6:30:0020.2700,02.22901021018
20/09/2019 6:20:0020.1700,02.1302771018
20/09/2019 6:10:0020.0700,02.0319471018
20/09/2019 6:00:0019.8700,02.1301221018
20/09/2019 5:50:0020.0710,02.1303121018
20/09/2019 5:40:0019.9700,01.529731018
20/09/2019 5:30:0019.8700,01.732001018
20/09/2019 5:20:0019.7710,01.932001018
20/09/2019 5:10:0019.7710,01.732201018
20/09/2019 5:00:0019.8710,02.232301018
20/09/2019 4:50:0019.8710,02.532301018
20/09/2019 4:40:0019.9710,02.331401018
20/09/2019 4:30:0020.0710,02.731901018
20/09/2019 4:20:0020.2710,02.531901018
20/09/2019 4:10:0020.5710,02.129101018
20/09/2019 4:00:0020.5700,02.029301018
20/09/2019 3:50:0020.3710,01.529501018
20/09/2019 3:40:0020.2730,02.132301018
20/09/2019 3:30:0020.1740,02.231901018
20/09/2019 3:20:0020.2740,02.731901018
20/09/2019 3:10:0020.3740,02.131601018
20/09/2019 3:00:0020.4740,01.732301018
20/09/2019 2:50:0020.5740,01.432201018
20/09/2019 2:40:0020.6750,01.129501018
20/09/2019 2:30:0020.7750,00.835001018
20/09/2019 2:20:0020.6740,01.434201018
20/09/2019 2:10:0020.8740,01.334401018
20/09/2019 2:00:0020.8740,01.632901018
20/09/2019 1:50:0020.8740,01.632601018
20/09/2019 1:40:0020.8750,01.831401018
20/09/2019 1:30:0020.8750,01.333101018
20/09/2019 1:20:0020.7750,01.829601018
20/09/2019 1:10:0020.6740,02.730901018
20/09/2019 1:00:0020.7740,02.232101018
20/09/2019 0:50:0020.6740,02.432101018
20/09/2019 0:40:0020.8740,02.333001018
20/09/2019 0:30:0020.9730,01.732701018
20/09/2019 0:20:0021.2730,01.931901018
20/09/2019 0:10:0021.3720,01.731601018
20/09/2019 0:00:0021.3700,01.228701018
19/09/2019 23:50:0021.3700,01.530201018
19/09/2019 23:40:0021.3710,01.332201018
19/09/2019 23:30:0021.3710,01.633901018
19/09/2019 23:20:0021.4710,01.131701018

ÚLTIMES FOTOS WEBCAM
Imatges del Pont
ÚLTIMES DADES

20/09/2019  
1:10h Local  (23:10 GMT)
 
 Velocitat mitjana del Vent
   3,7 m/s
 Direcció del Vent
   54º
 Humitat Relativa
   75 %
 Temperatura Aparent
   21,9 ºC
 Pluja Acumulada
   Pluja
   Index UV    IndexUV
 Temperatura de l'aigua    N/A
 Alçada d'ona    N/A
 Direcció d'ona    N/A
 Velocitat del corrent    N/A
 Direcció del corrent    N/A